[[{"header":{"parameterUnit":"m.s-1","parameterCategory":1,"la1":30.2991,"la2":30.254,"lo1":-89.0895,"lo2":-89.0444,"dy":0.0017,"dx":0.0017,"nx":28,"ny":28,"refTime":"2023-08-29T09:00:00:Z","depth":0,"parameterNumber":2,"parameterNumberName":"U-component_of_WINDS"},"data":[0,0,0,0,0,0,0,0,0,0,0,0,0,0,0,0,0,0,0,0,0,0,0,0,0,0,0,0,0,0,0,0,0,0,0,0,0,0,0,0,0,0,0,0,0,0,0,0,0,0,0,0,0,0,0,0,0,0,-3.0592,-3.0593,0,-3.0663,-3.0664,-3.0665,-3.0599,-3.0597,-3.0594,-3.0592,-3.0663,-3.0668,-3.0672,0,0,0,0,0,0,0,0,0,0,0,0,0,-3.04,-3.0404,-3.0592,-3.0593,-3.0594,-3.0663,-3.0664,-3.0665,-3.06,-3.0597,-3.0593,-3.059,-3.0662,-3.0667,-3.0672,0,0,0,0,0,0,0,0,0,0,0,0,0,-3.0478,-3.0405,-3.0592,-3.057,-3.0569,-3.0663,-3.0664,-3.0665,-3.0601,-3.0597,-3.0593,-3.0589,-3.066,-3.0667,-3.0673,-3.0792,0,0,-3.0693,-3.0696,0,0,0,0,0,0,0,0,-3.0474,-3.0485,-3.0572,-3.0572,-3.057,-3.0618,-3.0622,-3.0708,-3.0602,-3.0588,-3.0592,-3.0587,-3.0652,-3.0659,-3.068,-3.0796,-3.0799,-3.0694,-3.0698,-3.07,-3.0702,0,0,0,0,0,0,0,-3.0469,-3.0482,-3.062,-3.0574,-3.0572,-3.0556,-3.0563,-3.0638,-3.0641,-3.0589,-3.0585,-3.0594,-3.065,-3.0674,-3.0682,-3.08,-3.0694,-3.0699,-3.0703,-3.0706,-3.1018,-3.1022,0,0,0,0,0,0,-3.0466,-3.0478,-3.0618,-3.0622,-3.0511,-3.0563,-3.057,-3.0607,-3.064,-3.0642,-3.0597,-3.0591,-3.0665,-3.0674,-3.0684,-3.0827,-3.07,-3.0707,-3.071,-3.1013,-3.1018,-3.1023,0,0,0,0,0,0,-3.0462,-3.0479,-3.0615,-3.0549,-3.0565,-3.057,-3.0612,-3.061,-3.0634,-3.0646,-3.0646,-3.0622,-3.0662,-3.0675,-3.0766,-3.0829,-3.071,-3.0715,-3.1008,-3.1015,-3.1021,-3.1114,0,0,0,0,0,0,-3.0456,-3.0478,-3.0524,-3.055,-3.0569,-3.0697,-3.0616,-3.0615,-3.0646,-3.0638,-3.0669,-3.067,-3.066,-3.0757,-3.0773,-3.0836,-3.0721,-3.1003,-3.1011,-3.1019,-3.1106,-3.1123,-3.1138,0,0,0,0,0,-3.045,-3.0547,-3.0526,-3.0543,-3.0626,-3.0701,-3.0711,-3.0698,-3.0651,-3.0697,-3.0705,-3.0669,-3.0819,-3.0767,-3.0784,-3.085,-3.0999,-3.1009,-3.1018,-3.1098,-3.112,-3.1138,0,0,0,0,0,0,-3.0527,-3.055,-3.0527,-3.0636,-3.0667,-3.0689,-3.0747,-3.072,-3.0765,-3.0756,-3.0737,-3.0744,-3.0841,-3.0854,-3.0796,-3.0967,-3.0901,-3.0915,-3.0956,-3.0977,-3.0993,-3.0989,-3.0726,0,0,0,0,0,-3.0556,-3.0615,-3.0632,-3.0726,-3.0742,-3.0742,-3.0774,-3.0761,-3.0792,-3.0805,-3.0819,-3.0851,-3.0905,-3.0941,-3.0991,-3.1106,-3.1113,-3.116,-3.1176,-3.1189,-3.1202,-3.1265,-3.1287,-3.1055,-3.1055,-3.1055,0,0,-3.0618,-3.0638,-3.0676,-3.0742,-3.0764,-3.0826,-3.0754,-3.0822,-3.0867,-3.0815,-3.0903,-3.0915,-3.0948,-3.1053,-3.1099,-3.1066,-3.1267,-3.1202,-3.1212,-3.1218,-3.1278,-3.13,-3.1319,-3.1062,-3.1061,-3.106,0,0,-3.0763,-3.0783,-3.0865,-3.0889,-3.0923,-3.0922,-3.0942,-3.0969,-3.0975,-3.1062,-3.1025,-3.1078,-3.1171,-3.1197,-3.1223,-3.1376,-3.1346,-3.1393,-3.1479,-3.1541,-3.1559,-3.1575,-3.1632,-3.1652,-3.1405,-3.1405,-3.1406,0,-3.0836,-3.0927,-3.091,-3.0981,-3.1011,-3.0966,-3.1049,-3.1072,-3.1122,-3.1144,-3.1106,-3.1223,-3.1242,-3.1352,-3.139,-3.1411,-3.1434,-3.1391,-3.1558,-3.1574,-3.1589,-3.1643,-3.1664,-3.1411,-3.1411,-3.141,-3.1409,0,-3.1016,-3.108,-3.1141,-3.1191,-3.1227,-3.1303,-3.1297,-3.1336,-3.1319,-3.1323,-3.1413,-3.1434,-3.1489,-3.1513,-3.1497,-3.1622,-3.16,-3.156,-3.1494,-3.1617,-3.1667,-3.1687,-3.1419,-3.1417,-3.1416,-3.1414,0,0,-3.1214,-3.1252,-3.1275,-3.1297,-3.1332,-3.1381,-3.1454,-3.1508,-3.1543,-3.1577,-3.164,-3.1719,-3.1683,-3.1712,-3.1698,-3.1752,-3.1874,-3.1705,-3.1706,-3.1738,-3.2015,-3.2046,-3.2071,-3.1853,-3.1857,-3.186,-3.2012,0,-3.1362,-3.1491,-3.1477,-3.16,-3.1659,-3.1617,-3.1681,-3.171,-3.1714,-3.1764,-3.1768,-3.1826,-3.1773,-3.179,-3.1841,-3.1849,-3.193,-3.1837,-3.1912,-3.1915,-3.1908,-3.2097,-3.213,-3.2274,-3.2032,-3.2035,-3.2037,0,-3.1552,-3.1595,-3.1724,-3.175,-3.1774,-3.1833,-3.1881,-3.1929,-3.196,-3.1959,-3.1991,-3.1968,-3.2042,-3.1972,-3.2075,-3.2012,-3.2041,-3.2049,-3.2054,-3.2063,-3.1986,-3.2113,-3.2319,-3.2341,-3.2068,-3.2065,-3.2063,0,-3.1686,-3.1775,-3.1865,-3.1884,-3.1916,-3.1959,-3.1974,-3.2,-3.2034,-3.2075,-3.2096,-3.2146,-3.2173,-3.2212,-3.2203,-3.2152,-3.2308,-3.2237,-3.2311,-3.2312,-3.2348,-3.2346,-3.2564,-3.2363,-3.2362,-3.2362,-3.2362,0,-3.1855,-3.1936,-3.1925,-3.1981,-3.2071,-3.2053,-3.2142,-3.2152,-3.2176,-3.2232,-3.2197,-3.2251,-3.2234,-3.2287,-3.228,-3.2367,-3.2379,-3.2381,-3.2379,-3.2386,-3.2386,-3.2407,-3.2398,-3.2368,-3.2366,-3.2365,-3.2364,0,-3.2021,-3.2017,-3.2112,-3.2134,-3.2141,-3.2207,-3.2226,-3.2278,-3.2278,-3.235,-3.2366,-3.2368,-3.2428,-3.2422,-3.2489,-3.2484,-3.2593,-3.2577,-3.2583,-3.2581,-3.2656,-3.265,-3.2897,-3.2929,-3.2704,-3.2707,-3.2708,0,-3.213,-3.2192,-3.2221,-3.2256,-3.2274,-3.2331,-3.2365,-3.2349,-3.2385,-3.2425,-3.2472,-3.2529,-3.2575,-3.2673,-3.268,-3.2731,-3.2718,-3.2801,-3.2726,-3.2732,-3.2723,-3.272,-3.2727,-3.2817,-3.282,-3.2822,-3.2823,0,-3.2325,-3.232,-3.237,-3.2419,-3.246,-3.2498,-3.2533,-3.2563,-3.2551,-3.2593,-3.2655,-3.269,-3.2758,-3.2816,-3.2865,-3.288,-3.2851,-3.2847,-3.2867,-3.2876,-3.2878,-3.2881,-3.2626,-3.2842,-3.284,-3.2839,-3.2838,-3.2837,-3.2468,-3.2521,-3.255,-3.2607,-3.2631,-3.2664,-3.2714,-3.2721,-3.2772,-3.2827,-3.2813,-3.2883,-3.2912,-3.2974,-3.2994,-3.3049,-3.3019,-3.3047,-3.3055,-3.3063,-3.3073,-3.2867,-3.3057,-3.3056,-3.3056,-3.3055,-3.3055,0,-3.2663,-3.2679,-3.2731,-3.2781,-3.2826,-3.2792,-3.2828,-3.2868,-3.293,-3.2959,-3.3004,-3.3075,-3.313,-3.3142,-3.3195,-3.3236,-3.3224,-3.3251,-3.3249,-3.3253,-3.3096,-3.3074,-3.326,-3.326,-3.326,-3.326,-3.326,-3.326,-3.2771,-3.2859,-3.2857,-3.2958,-3.2973,-3.3041,-3.3065,-3.3095,-3.3118,-3.3199,-3.3245,-3.3251,-3.3274,-3.3328,-3.3377,-3.3379,-3.3401,-3.3434,-3.3431,-3.3284,-3.3264,-3.3245,-3.3224,-3.3438,-3.3439,-3.3584,-3.3585,-3.3586]},{"header":{"parameterUnit":"m.s-1","parameterCategory":1,"la1":30.2991,"la2":30.254,"lo1":-89.0895,"lo2":-89.0444,"dy":0.0017,"dx":0.0017,"nx":28,"ny":28,"refTime":"2023-08-29T09:00:00:Z","depth":0,"parameterNumber":3,"parameterNumberName":"V-component_of_WINDS"},"data":[0,0,0,0,0,0,0,0,0,0,0,0,0,0,0,0,0,0,0,0,0,0,0,0,0,0,0,0,0,0,0,0,0,0,0,0,0,0,0,0,0,0,0,0,0,0,0,0,0,0,0,0,0,0,0,0,0,0,-0.9777,-0.9776,0,-0.9722,-0.9722,-0.9721,-0.968,-0.968,-0.9679,-0.9679,-0.9624,-0.9623,-0.9622,0,0,0,0,0,0,0,0,0,0,0,0,0,-0.9844,-0.9843,-0.9777,-0.9776,-0.9775,-0.9722,-0.9722,-0.9721,-0.968,-0.968,-0.9679,-0.9679,-0.9624,-0.9623,-0.9622,0,0,0,0,0,0,0,0,0,0,0,0,0,-0.9805,-0.9843,-0.9777,-0.9749,-0.9745,-0.9723,-0.9722,-0.9721,-0.968,-0.968,-0.9679,-0.9678,-0.9625,-0.9623,-0.9622,-0.9623,0,0,-0.9617,-0.9616,0,0,0,0,0,0,0,0,-0.9807,-0.9803,-0.9753,-0.975,-0.9747,-0.9707,-0.9725,-0.9688,-0.968,-0.9705,-0.9679,-0.9678,-0.9652,-0.9648,-0.9639,-0.962,-0.9618,-0.9616,-0.9615,-0.9615,-0.9614,0,0,0,0,0,0,0,-0.981,-0.9805,-0.9755,-0.9753,-0.9749,-0.9738,-0.9732,-0.9718,-0.9683,-0.9703,-0.97,-0.9694,-0.965,-0.9641,-0.9638,-0.9617,-0.9616,-0.9615,-0.9614,-0.9613,-0.9595,-0.9595,0,0,0,0,0,0,-0.9817,-0.9807,-0.9757,-0.9754,-0.9776,-0.9737,-0.9731,-0.9721,-0.9683,-0.9676,-0.9694,-0.9692,-0.9644,-0.964,-0.9636,-0.9634,-0.9615,-0.9613,-0.9612,-0.9594,-0.9595,-0.9595,0,0,0,0,0,0,-0.9819,-0.9813,-0.9759,-0.9779,-0.9772,-0.9737,-0.9726,-0.972,-0.9711,-0.9676,-0.967,-0.9691,-0.9644,-0.9638,-0.9626,-0.9632,-0.9612,-0.9611,-0.9594,-0.9595,-0.9595,-0.9632,0,0,0,0,0,0,-0.9821,-0.9814,-0.9814,-0.978,-0.9771,-0.9751,-0.9726,-0.9719,-0.9708,-0.9704,-0.9672,-0.9666,-0.9643,-0.9629,-0.9624,-0.9629,-0.961,-0.9593,-0.9594,-0.9595,-0.963,-0.9634,-0.9637,0,0,0,0,0,-0.9823,-0.9827,-0.9815,-0.9809,-0.9771,-0.9751,-0.9746,-0.9719,-0.9708,-0.9708,-0.9686,-0.9667,-0.9632,-0.9628,-0.9623,-0.9627,-0.9593,-0.9594,-0.9595,-0.9629,-0.9633,-0.9637,0,0,0,0,0,0,-0.9865,-0.9822,-0.9808,-0.9801,-0.978,-0.9744,-0.9744,-0.9725,-0.9707,-0.9705,-0.9672,-0.9665,-0.9657,-0.964,-0.9637,-0.9626,-0.961,-0.961,-0.9637,-0.9641,-0.9645,-0.9649,-0.9608,0,0,0,0,0,-0.9873,-0.986,-0.9824,-0.9821,-0.9811,-0.9779,-0.977,-0.9751,-0.9728,-0.9719,-0.9696,-0.9674,-0.9658,-0.9648,-0.9632,-0.9627,-0.9619,-0.9627,-0.9631,-0.9634,-0.9635,-0.963,-0.9634,-0.9599,-0.9599,-0.9599,0,0,-0.989,-0.9865,-0.9859,-0.9829,-0.981,-0.9798,-0.9772,-0.9761,-0.9751,-0.9717,-0.9704,-0.9686,-0.966,-0.9651,-0.9647,-0.9638,-0.9642,-0.9635,-0.9638,-0.9637,-0.9632,-0.9635,-0.9638,-0.96,-0.96,-0.96,0,0,-0.9915,-0.9895,-0.989,-0.9871,-0.9843,-0.9821,-0.982,-0.9787,-0.9773,-0.976,-0.9734,-0.9721,-0.9695,-0.9677,-0.9664,-0.968,-0.9662,-0.9675,-0.9694,-0.969,-0.9693,-0.9695,-0.9701,-0.9704,-0.9676,-0.9676,-0.9676,0,-0.994,-0.992,-0.989,-0.9879,-0.9866,-0.9833,-0.9828,-0.9812,-0.978,-0.9772,-0.9762,-0.9726,-0.9706,-0.9693,-0.9697,-0.9687,-0.9685,-0.968,-0.9695,-0.9697,-0.9699,-0.9704,-0.9706,-0.9678,-0.9678,-0.9677,-0.9677,0,-0.9952,-0.9939,-0.9938,-0.9908,-0.9894,-0.9886,-0.9854,-0.9844,-0.9826,-0.9805,-0.9791,-0.9765,-0.9743,-0.9737,-0.9719,-0.9721,-0.9716,-0.9701,-0.9685,-0.9704,-0.9709,-0.9711,-0.9681,-0.968,-0.9679,-0.9679,0,0,-1.0005,-0.9955,-0.9955,-0.9941,-0.9906,-0.9895,-0.9885,-0.9862,-0.9854,-0.9832,-0.9823,-0.98,-0.9785,-0.9771,-0.975,-0.9747,-0.976,-0.9731,-0.973,-0.9739,-0.9761,-0.9773,-0.9776,-0.9747,-0.9747,-0.9748,-0.9763,0,-1.0025,-1.0005,-0.9977,-0.9967,-0.9954,-0.9921,-0.9912,-0.989,-0.9869,-0.9855,-0.9832,-0.9816,-0.9798,-0.9789,-0.9783,-0.976,-0.9765,-0.9758,-0.9739,-0.9739,-0.9748,-0.9779,-0.9792,-0.9809,-0.9765,-0.9765,-0.9765,0,-1.0047,-1.0026,-1.0015,-0.998,-0.9973,-0.9966,-0.9942,-0.9928,-0.9902,-0.9887,-0.987,-0.9847,-0.9834,-0.9818,-0.98,-0.9796,-0.9786,-0.9773,-0.9772,-0.9771,-0.9754,-0.9779,-0.9813,-0.9816,-0.9767,-0.9767,-0.9767,0,-1.0087,-1.0056,-1.0045,-1.0033,-0.9992,-0.9987,-0.997,-0.9942,-0.993,-0.9908,-0.99,-0.9877,-0.9866,-0.9848,-0.982,-0.981,-0.9805,-0.9786,-0.9793,-0.9794,-0.9795,-0.9795,-0.9829,-0.9786,-0.9786,-0.9786,-0.9786,0,-1.0114,-1.0109,-1.0062,-1.0056,-1.0048,-1.0014,-1.0008,-0.9987,-0.9962,-0.9951,-0.9921,-0.9911,-0.9872,-0.9858,-0.9835,-0.9824,-0.9818,-0.9806,-0.98,-0.981,-0.9811,-0.9804,-0.9803,-0.9786,-0.9786,-0.9786,-0.9786,0,-1.0159,-1.0128,-1.0114,-1.0075,-1.0064,-1.0061,-1.0027,-1.0019,-0.9996,-0.9982,-0.9976,-0.994,-0.9921,-0.989,-0.9862,-0.9846,-0.9839,-0.9829,-0.9849,-0.9845,-0.9854,-0.9854,-0.9885,-0.9888,-0.9842,-0.9843,-0.9843,0,-1.018,-1.0174,-1.0134,-1.0124,-1.0107,-1.0091,-1.0078,-1.0043,-1.0031,-0.9998,-0.9994,-0.9972,-0.9954,-0.9924,-0.9896,-0.9874,-0.9863,-0.9875,-0.986,-0.9869,-0.9865,-0.9866,-0.9865,-0.988,-0.9881,-0.9881,-0.9881,0,-1.0219,-1.0203,-1.0185,-1.0161,-1.0145,-1.0125,-1.0103,-1.0096,-1.0056,-1.0043,-1.0023,-1.0008,-0.9978,-0.9957,-0.9931,-0.9913,-0.9891,-0.9886,-0.9887,-0.9897,-0.9909,-0.9904,-0.986,-0.9886,-0.9886,-0.9885,-0.9885,-0.9885,-1.0253,-1.0246,-1.0217,-1.0197,-1.0176,-1.0156,-1.0146,-1.0121,-1.0103,-1.0076,-1.0056,-1.0037,-1.0008,-0.997,-0.9953,-0.9937,-0.9928,-0.9928,-0.9929,-0.993,-0.9934,-0.991,-0.9932,-0.9932,-0.9932,-0.9932,-0.9932,0,-1.0292,-1.027,-1.0252,-1.0222,-1.0206,-1.0184,-1.0158,-1.0147,-1.013,-1.0105,-1.0086,-1.0062,-1.0041,-1.0009,-0.9985,-0.9979,-0.9968,-0.9974,-0.9975,-0.9971,-0.9943,-0.9946,-0.9983,-0.9983,-0.9983,-0.9983,-0.9983,-0.9983,-1.0311,-1.0298,-1.0278,-1.0255,-1.0233,-1.0214,-1.0201,-1.0182,-1.0161,-1.0136,-1.0117,-1.0096,-1.0068,-1.0042,-1.0021,-1.0012,-1.0005,-1.0015,-1.0003,-0.9978,-0.9973,-0.9969,-0.9971,-1.0013,-1.0013,-1.0032,-1.0032,-1.0033]}]]